Waarnemingen

Advertentie
Mijn weer
Shoreham Airport, Groot Brittannië (3876): temperatuur & dauwpunt: 18.01.2018 05:00:00 - 24.01.2018 05:00:00 (GMT)Shoreham Airport, Groot Brittannië (3876): windsnelheid & windstoten: 18.01.2018 05:00:00 - 24.01.2018 05:00:00 (GMT)Shoreham Airport, Groot Brittannië (3876): windrichting: 18.01.2018 05:00:00 - 24.01.2018 05:00:00 (GMT)Shoreham Airport, Groot Brittannië (3876): luchtdruk: 18.01.2018 05:00:00 - 24.01.2018 05:00:00 (GMT)Shoreham Airport, Groot Brittannië (3876): zicht: 18.01.2018 05:00:00 - 24.01.2018 05:00:00 (GMT)Shoreham Airport, Groot Brittannië (3876): neerslag: 18.01.2018 05:00:00 - 24.01.2018 05:00:00 (GMT)
Datum & Tijd tt [°C] td [°C] ff [km/u] ff [kn] fx [km/u] fx [kn] dd ppp [hPa] vv [km] rr [mm]
24.01.2018 05:00:00 10,6 10,3 34 18 46 25 ZZW 1012,1 - 0,0
24.01.2018 04:00:00 10,1 9,9 24 13 - - Z 1013,1 - 0,2
24.01.2018 03:00:00 10,3 10,1 31 17 - - ZZW 1014,0 - 0,0
24.01.2018 02:00:00 10,0 9,8 29 16 - - ZW 1014,9 - 0,0
24.01.2018 01:00:00 9,9 9,8 29 16 - - ZW 1015,8 - 0,4
24.01.2018 00:00:00 9,6 9,4 21 11 - - ZW 1016,4 - 0,0
23.01.2018 23:00:00 9,7 9,5 24 13 - - ZW 1016,6 - 0,0
23.01.2018 22:00:00 10,0 9,8 26 14 - - ZW 1016,6 - 0,0
23.01.2018 21:00:00 10,1 9,9 24 13 - - ZW 1016,6 - 0,0
23.01.2018 20:00:00 10,3 10,1 29 16 46 25 WZW 1016,4 1,4 0,0
23.01.2018 19:00:00 10,3 10,1 26 14 - - WZW 1016,3 1,2 0,0
23.01.2018 18:00:00 10,1 10,0 29 16 - - ZW 1015,8 3,0 0,0
23.01.2018 17:00:00 10,2 10,1 34 18 - - ZW 1015,6 1,2 0,0
23.01.2018 16:00:00 9,9 9,8 28 15 - - ZW 1015,7 1,1 0,0
23.01.2018 15:00:00 10,1 10,0 28 15 46 25 ZW 1015,8 1,5 0,2
23.01.2018 14:00:00 10,2 10,0 29 16 48 26 ZW 1015,9 1,6 0,0
23.01.2018 13:00:00 10,2 9,9 28 15 - - ZW 1016,4 1,2 0,0
23.01.2018 12:00:00 10,1 9,6 29 16 - - ZW 1016,8 3,0 0,0
23.01.2018 11:00:00 10,1 9,8 28 15 - - ZW 1017,2 4,2 0,0
23.01.2018 10:00:00 9,5 9,2 29 16 - - ZZW 1017,4 2,8 0,0
23.01.2018 09:00:00 9,0 8,7 21 11 - - ZZW 1017,6 2,0 0,2
23.01.2018 08:00:00 8,7 8,2 21 11 - - ZZW 1017,9 1,8 0,8
23.01.2018 07:00:00 8,9 7,9 28 15 - - ZZW 1018,3 - 0,2
23.01.2018 06:00:00 8,7 7,9 21 11 - - ZZW 1018,5 - 0,0
23.01.2018 05:00:00 8,9 7,9 21 11 - - ZZW 1019,0 - 0,0
23.01.2018 04:00:00 8,6 6,9 13 7 - - ZW 1019,4 - 0,0
23.01.2018 03:00:00 8,5 5,9 15 8 - - ZW 1019,6 - 0,0
23.01.2018 02:00:00 8,7 7,2 21 11 - - WZW 1019,8 - 0,0
23.01.2018 01:00:00 8,4 6,4 4 2 - - W 1020,1 - 0,0
23.01.2018 00:00:00 8,3 5,5 4 2 - - WZW 1020,4 - 0,0
22.01.2018 23:00:00 8,4 6,1 13 7 - - W 1020,2 - 0,0
22.01.2018 22:00:00 8,0 4,8 2 1 - - W 1020,1 - 0,0
22.01.2018 21:00:00 8,4 4,6 11 6 - - W 1019,9 - 0,0
22.01.2018 20:00:00 8,4 4,2 9 5 - - W 1019,3 - 0,0
22.01.2018 19:00:00 8,5 4,1 13 7 - - W 1018,8 - 0,0
22.01.2018 18:00:00 8,9 4,3 15 8 - - W 1018,4 10 0,0
22.01.2018 17:00:00 9,4 4,5 8 4 - - WNW 1017,6 10 0,0
22.01.2018 16:00:00 9,8 4,3 18 10 - - WNW 1016,4 10 0,0
22.01.2018 15:00:00 10,2 4,6 21 11 - - WNW 1015,1 10 0,0
22.01.2018 14:00:00 11,0 5,5 21 11 - - WNW 1014,2 10 0,0
22.01.2018 13:00:00 11,0 5,2 24 13 - - NW 1013,3 10 0,0
22.01.2018 12:00:00 10,9 7,0 22 12 - - NW 1012,5 10 0,0
22.01.2018 11:00:00 9,3 6,6 15 8 - - NNW 1011,5 10 0,0
22.01.2018 10:00:00 8,5 6,7 15 8 - - NNW 1010,1 10 0,0
22.01.2018 09:00:00 8,5 7,2 11 6 - - NNW 1008,9 9 0,2
22.01.2018 08:00:00 8,3 7,9 11 6 - - WNW 1008,6 9 0,0
22.01.2018 07:00:00 7,2 6,8 9 5 - - WNW 1007,8 - 0,0
22.01.2018 06:00:00 7,1 6,7 5 3 - - W 1008,0 - 0,0
22.01.2018 05:00:00 8,0 7,6 5 3 - - WZW 1008,0 - 0,0
22.01.2018 04:00:00 8,2 7,9 4 2 - - OZO 1008,0 - 0,0
22.01.2018 03:00:00 8,2 7,8 2 1 - - WNW 1007,8 - 0,0
22.01.2018 02:00:00 8,3 7,8 5 3 - - W 1007,8 - 0,0
22.01.2018 01:00:00 9,9 9,5 13 7 - - WZW 1007,8 - 0,0
22.01.2018 00:00:00 9,9 9,5 9 5 - - ZZW 1007,8 - 0,0
21.01.2018 23:00:00 10,1 9,8 18 10 - - WZW 1007,8 - 0,0
21.01.2018 22:00:00 10,2 9,8 16 9 - - WZW 1007,3 - 0,0
21.01.2018 21:00:00 10,7 10,4 22 12 - - W 1007,3 - 0,2
21.01.2018 20:00:00 9,9 9,7 28 15 - - WZW 1007,0 - 0,0
21.01.2018 19:00:00 9,6 9,5 26 14 - - WZW 1007,3 1,7 0,4
21.01.2018 18:00:00 8,7 8,6 11 6 - - ZW 1007,7 1,4 0,6
21.01.2018 17:00:00 7,6 7,4 22 12 - - OZO 1008,5 1,1 0,8
21.01.2018 16:00:00 7,2 6,9 18 10 - - OZO 1009,5 4,2 1,0
21.01.2018 15:00:00 6,8 6,5 15 8 - - OZO 1010,9 3,0 0,8
21.01.2018 14:00:00 6,4 6,0 21 11 - - ZO 1011,8 2,8 0,6
21.01.2018 13:00:00 6,0 5,4 22 12 - - ZZO 1012,5 3,5 1,2
21.01.2018 12:00:00 5,6 4,6 24 13 - - ZO 1013,1 3,8 0,4
21.01.2018 11:00:00 4,2 3,5 18 10 - - OZO 1014,6 6 0,8
21.01.2018 10:00:00 3,4 2,6 15 8 - - O 1015,5 4,0 1,2
21.01.2018 09:00:00 3,0 2,4 5 3 - - NNO 1016,0 3,5 0,2
21.01.2018 08:00:00 2,4 1,8 5 3 - - O 1015,8 - 0,0
21.01.2018 07:00:00 2,1 1,5 2 1 - - NW 1015,7 - 0,0
21.01.2018 06:00:00 2,1 1,4 5 3 - - W 1015,4 - 0,0
21.01.2018 05:00:00 2,2 1,3 4 2 - - W 1015,0 - 0,0
21.01.2018 04:00:00 2,3 1,3 2 1 - - W 1014,7 - 0,0
21.01.2018 03:00:00 2,4 1,4 8 4 - - N 1014,1 - 0,0
21.01.2018 02:00:00 2,7 1,5 9 5 - - NNW 1014,2 - 0,0
21.01.2018 01:00:00 2,5 1,4 5 3 - - NNW 1012,9 - 0,0
21.01.2018 00:00:00 2,1 1,1 8 4 - - NW 1011,9 - 0,0
20.01.2018 23:00:00 3,6 2,6 18 10 - - N 1010,1 - 0,0
20.01.2018 22:00:00 3,6 2,9 4 2 - - N 1008,9 - 0,0
20.01.2018 21:00:00 4,0 3,3 16 9 - - N 1007,1 - 0,0
20.01.2018 20:00:00 4,7 4,2 9 5 - - N 1004,8 6 0,0
20.01.2018 19:00:00 5,3 5,0 11 6 - - N 1002,9 3,5 0,0
20.01.2018 18:00:00 5,7 5,4 15 8 - - N 1000,8 4,0 0,2
20.01.2018 17:00:00 6,5 6,1 13 7 - - N 999,2 4,5 0,0
20.01.2018 16:00:00 7,8 7,4 9 5 - - W 998,2 7 0,0
20.01.2018 15:00:00 7,5 7,1 9 5 - - W 997,8 6 0,0
20.01.2018 14:00:00 7,2 6,9 9 5 - - WZW 997,8 3,0 0,2
20.01.2018 13:00:00 6,9 6,5 9 5 - - NNW 998,0 1,6 0,2
20.01.2018 12:00:00 7,3 6,9 0 0 - - N 998,2 1,6 0,2
20.01.2018 11:00:00 7,1 6,7 5 3 - - Z 998,9 1,8 0,2
20.01.2018 10:00:00 6,9 6,5 11 6 - - Z 999,2 9 0,2
20.01.2018 09:00:00 6,1 5,8 16 9 - - OZO 999,8 2,8 1,6
20.01.2018 08:00:00 5,7 4,9 18 10 - - OZO 1000,6 - 0,4
20.01.2018 07:00:00 5,5 4,4 8 4 - - OZO 1001,9 - 1,0
20.01.2018 06:00:00 5,2 4,2 5 3 - - ZW 1003,5 - 1,2
20.01.2018 05:00:00 5,4 4,0 5 3 - - ZZW 1004,9 - 0,6
20.01.2018 04:00:00 5,2 4,0 15 8 - - WZW 1006,2 - 0,0
20.01.2018 03:00:00 2,1 0,9 8 4 - - W 1007,5 - 0,0
20.01.2018 02:00:00 3,0 2,0 0 0 - - N 1008,7 - 0,0
20.01.2018 01:00:00 1,7 0,5 4 2 - - W 1009,8 - 0,0
20.01.2018 00:00:00 2,0 0,8 4 2 - - ZO 1010,5 - 0,0
19.01.2018 23:00:00 1,1 0,1 2 1 - - W 1010,7 - 0,0
19.01.2018 22:00:00 1,6 0,2 5 3 - - W 1011,1 - 0,0
19.01.2018 21:00:00 2,3 0,7 15 8 - - W 1011,2 - 0,0
19.01.2018 20:00:00 2,7 0,8 13 7 - - W 1010,9 - 0,0
19.01.2018 19:00:00 3,1 0,8 5 3 - - W 1010,7 10 0,0
19.01.2018 18:00:00 3,9 1,3 11 6 - - W 1010,7 10 0,0
19.01.2018 17:00:00 5,3 1,2 21 11 - - W 1010,5 10 0,0
19.01.2018 16:00:00 6,6 0,4 28 15 - - W 1010,3 10 0,0
19.01.2018 15:00:00 7,3 0,4 22 12 - - W 1010,1 10 0,0
19.01.2018 14:00:00 7,7 1,5 22 12 - - W 1010,1 10 0,0
19.01.2018 13:00:00 7,1 2,0 21 11 - - W 1010,7 10 0,0
19.01.2018 12:00:00 6,5 2,9 18 10 - - W 1011,1 10 0,0
19.01.2018 11:00:00 4,9 2,5 15 8 - - W 1011,4 10 0,0
19.01.2018 10:00:00 2,7 1,3 13 7 - - W 1011,0 10 0,0
19.01.2018 09:00:00 0,6 -0,3 11 6 - - W 1010,6 10 0,0
19.01.2018 08:00:00 -0,5 -1,6 2 1 - - - 1010,2 10 0,0
19.01.2018 07:00:00 0,3 -0,9 13 7 - - W 1009,9 - 0,0
19.01.2018 06:00:00 0,6 -0,7 15 8 - - W 1009,6 - 0,0
19.01.2018 05:00:00 1,2 -0,4 15 8 - - WZW 1009,3 - 0,0
19.01.2018 04:00:00 0,3 -1,3 8 4 - - WZW 1009,3 - 0,0
19.01.2018 03:00:00 1,8 0,2 13 7 - - W 1009,1 - 0,0
19.01.2018 02:00:00 1,5 0,3 15 8 - - WZW 1008,9 - 0,0
19.01.2018 01:00:00 1,5 -0,1 13 7 - - W 1008,4 - 0,0
19.01.2018 00:00:00 2,0 0,2 15 8 - - W 1008,1 - 0,0
18.01.2018 23:00:00 2,8 -0,2 18 10 - - W 1007,6 - 0,0
18.01.2018 22:00:00 4,1 0,2 18 10 - - WNW 1007,3 - 0,0
18.01.2018 21:00:00 4,4 1,2 21 11 - - W 1006,7 - 0,0
18.01.2018 20:00:00 4,6 1,2 21 11 - - WNW 1005,7 10 0,0
18.01.2018 19:00:00 5,3 2,4 18 10 - - WNW 1005,2 10 0,0
18.01.2018 18:00:00 5,2 3,3 15 8 - - W 1004,4 10 0,0
18.01.2018 17:00:00 6,0 3,5 21 11 - - W 1003,8 10 0,0
18.01.2018 16:00:00 6,9 3,0 28 15 - - W 1003,2 10 0,0
18.01.2018 15:00:00 9,0 4,4 24 13 - - W 1003,3 10 0,0
18.01.2018 14:00:00 9,7 4,6 26 14 - - W 1003,2 10 0,0
18.01.2018 13:00:00 9,2 4,4 29 16 - - WZW 1003,3 10 0,0
18.01.2018 12:00:00 8,9 4,2 29 16 - - WZW 1003,7 10 0,0
18.01.2018 11:00:00 8,7 3,3 26 14 - - W 1003,9 10 0,0
18.01.2018 10:00:00 7,9 3,4 24 13 - - W 1003,5 10 0,0
18.01.2018 09:00:00 7,3 2,6 26 14 - - W 1002,6 - 0,0
18.01.2018 08:00:00 7,9 2,6 34 18 65 35 WNW 1000,8 10 0,0
18.01.2018 07:00:00 8,6 2,6 42 23 80 43 W 999,3 - 0,0
18.01.2018 06:00:00 10,0 4,3 42 23 91 49 W 997,5 - 0,0
18.01.2018 05:00:00 10,8 7,7 48 26 74 40 W 995,3 - 0,0

tt = temperatuur
td = dauwpunt
ff = windsnelheid
fx = windstoten
dd = windrichting
ppp = luchtdruk
vv = zicht
rr = neerslag

Weerstations in de omgeving